Tracking 29892 objects as of 21-Nov-2024
HD Live streaming from Space Station
objects crossing your sky now

STARLINK-5001

Track STARLINK-5001 now!
10-day predictions
STARLINK-5001 is classified as:


NORAD ID: 53924
Int'l Code: 2022-119AQ
Perigee: 545.9 km
Apogee: 547.8 km
Inclination: 53.2 °
Period: 95.4 minutes
Semi major axis: 6917 km
RCS: Unknown
Launch date: September 24, 2022
Source: United States (US)
Launch site: AIR FORCE EASTERN TEST RANGE (AFETR)
Your satellite tracking list
Your tracking list is empty




NASA's NSSDC Master Catalog

Two Line Element Set (TLE):
1 53924U 22119AQ  24325.85620704  .00000415  00000-0  44145-4 0  9998
2 53924  53.2187 276.1475 0001384  80.6129 279.5019 15.08839468119944
Source of the keplerian elements: AFSPC